Location: Beeston
(52.7000°N, 0.8167°E)
Time: 20:45:27
(UTC+00:00)

Cosmos 1777 Rocket - Pass Details

Date: 15 May 2026
Orbit: 754 x 771 km, 74.0° (Epoch: 7 June)

Event Time Altitude Azimuth Distance (km) Brightness Sun altitude
Rises 21:31:40 0° 332° (NNW) 3,244 9.3 -12.0°
Reaches altitude 10° 21:34:04 10° 329° (NNW) 2,311 8.0 -12.2°
Maximum altitude 21:39:14 63° 250° (WSW) 849 4.3 -12.6°
Enters shadow 21:43:21 16° 172° (S) 1,903 5.5 -12.9°
